AB8YS Weather Reports


time (UTC)temp
C
wind
direction
speed
KPH
gust
KPH
rain 1hr
cm
rain 24hr
cm
rain mn
cm
humidity
%
barometer
mb
20260508051524 8 250 0.0 1.6 0.00 0.00 0.00 70 1014.5
20260508050025 7 275 0.0 1.6 0.00 0.00 0.00 71 1014.5
20260508044521 7 276 0.0 0.0 0.00 0.00 0.00 71 1014.5
20260508043019 7 276 0.0 0.0 0.00 0.00 0.00 70 1014.4
20260508041518 7 276 0.0 0.0 0.00 0.00 0.00 72 1014.4
20260508040015 7 276 0.0 0.0 0.00 0.00 0.00 72 1014.3
20260508034514 8 276 0.0 0.0 0.00 0.00 0.00 70 1014.3
20260508033017 8 276 0.0 0.0 0.00 0.00 0.00 69 1014.3
20260508031513 8 276 0.0 0.0 0.00 0.00 0.00 71 1014.4
20260508030012 7 276 0.0 0.0 0.00 0.00 0.00 71 1014.3
20260508024522 7 276 0.0 0.0 0.00 0.00 0.00 74 1014.3
20260508023011 8 276 0.0 0.0 0.00 0.00 0.00 78 1014.3
20260508021512 8 276 0.0 0.0 0.00 0.00 0.00 73 1014.0
20260508020015 8 276 0.0 0.0 0.00 0.00 0.00 72 1014.2
20260508014510 8 276 0.0 0.0 0.00 0.00 0.00 70 1014.2
20260508013009 9 276 0.0 0.0 0.00 0.00 0.00 68 1014.3
20260508011508 10 276 0.0 0.0 0.00 0.00 0.00 65 1014.1
20260508010009 10 276 0.0 0.0 0.00 0.00 0.00 61 1014.1
20260508004507 11 276 0.0 0.0 0.00 0.00 0.00 57 1014.1
20260508003007 11 276 0.0 0.0 0.00 0.00 0.00 53 1014.0
20260508001507 12 276 0.0 0.0 0.00 0.00 0.00 54 1013.9
20260508000006 12 276 0.0 0.0 0.00 0.00 0.00 51 1013.8
20260507234506 12 276 0.0 1.6 0.00 0.00 0.00 52 1013.6
20260507233005 13 276 0.0 0.0 0.00 0.00 0.00 52 1013.7
20260507231507 13 276 0.0 1.6 0.00 0.00 0.00 47 1013.7
20260507230005 13 287 0.0 1.6 0.00 0.00 0.00 52 1013.7
20260507224511 13 301 0.0 1.6 0.00 0.00 0.00 45 1013.5
20260507223002 13 39 0.0 8.0 0.00 0.00 0.00 47 1013.6
20260507221501 13 284 0.0 1.6 0.00 0.00 0.00 42 1013.9
20260507220001 13 26 0.0 4.8 0.00 0.00 0.00 47 1014.0
20260507214612 13 23 0.0 4.8 0.00 0.00 0.00 44 1014.0
20260507213109 13 49 0.0 1.6 0.00 0.00 0.00 47 1014.1
20260507211559 13 311 0.0 1.6 0.00 0.00 0.00 45 1014.0
20260507210059 13 264 0.0 3.2 0.00 0.00 0.00 45 1013.9
20260507204611 14 265 0.0 3.2 0.00 0.00 0.00 44 1013.9
20260507203058 14 274 0.0 1.6 0.00 0.00 0.00 45 1013.8
20260507201557 14 350 0.0 4.8 0.00 0.00 0.00 47 1013.8
20260507200056 14 266 0.0 3.2 0.00 0.00 0.00 41 1013.9
20260507194555 14 271 0.0 3.2 0.00 0.00 0.00 43 1014.1
20260507193107 14 302 0.0 8.0 0.00 0.00 0.00 47 1014.0
20260507191553 14 288 0.0 3.2 0.00 0.00 0.00 46 1014.1
20260507184552 15 37 1.6 8.0 0.00 0.00 0.00 47 1014.1
20260507183056 15 286 0.0 3.2 0.00 0.00 0.00 45 1014.5
20260507181548 14 286 0.0 4.8 0.00 0.00 0.00 44 1014.5
20260507180051 14 297 0.0 3.2 0.00 0.00 0.00 45 1014.6
20260507174547 14 265 0.0 3.2 0.00 0.00 0.00 46 1014.6
20260507173053 14 266 0.0 3.2 0.00 0.00 0.00 47 1014.8
20260507171546 13 307 0.0 4.8 0.00 0.00 0.00 45 1015.0
20260507170044 13 266 0.0 3.2 0.00 0.00 0.00 47 1015.2
20260507164541 13 295 0.0 3.2 0.00 0.00 0.00 48 1015.3
20260507163040 13 274 0.0 3.2 0.00 0.00 0.00 47 1015.4
20260507161540 13 274 0.0 3.2 0.00 0.00 0.00 48 1015.4
20260507160039 12 264 0.0 3.2 0.00 0.00 0.00 47 1015.4
20260507154540 13 273 0.0 3.2 0.00 0.00 0.00 48 1015.4
20260507153038 12 290 0.0 3.2 0.00 0.00 0.00 50 1015.4
20260507151530 12 269 0.0 1.6 0.00 0.00 0.00 49 1015.3
20260507150029 12 282 0.0 0.0 0.00 0.00 0.00 47 1015.2
20260507144525 12 262 0.0 1.6 0.00 0.00 0.00 53 1015.3
20260507143023 11 284 0.0 3.2 0.00 0.00 0.00 51 1015.2
20260507141521 11 294 0.0 3.2 0.00 0.00 0.00 52 1015.3
20260507140021 11 275 0.0 1.6 0.00 0.00 0.00 55 1015.3
20260507134521 11 314 0.0 1.6 0.00 0.00 0.00 56 1015.3
20260507133018 11 297 0.0 1.6 0.00 0.00 0.00 56 1015.3
20260507131513 10 281 0.0 3.2 0.00 0.00 0.00 59 1015.4
20260507130011 10 302 0.0 1.6 0.00 0.00 0.00 61 1015.5
20260507124510 10 293 0.0 0.0 0.00 0.00 0.00 66 1015.5
20260507123007 9 293 0.0 1.6 0.00 0.00 0.00 69 1015.5
20260507121503 8 110 0.0 1.6 0.00 0.00 0.00 76 1015.5
20260507120002 8 110 0.0 0.0 0.00 0.00 0.00 77 1015.3
20260507114605 7 110 0.0 0.0 0.00 0.00 0.00 85 1015.4
20260507113054 6 62 0.0 0.0 0.00 0.00 0.00 95 1015.5
20260507111553 3 63 0.0 0.0 0.00 0.00 0.00 96 1015.3
20260507110051 3 63 0.0 0.0 0.00 0.00 0.00 96 1015.1
20260507104549 3 63 0.0 0.0 0.00 0.00 0.00 96 1014.9
20260507103050 3 63 0.0 0.0 0.00 0.00 0.00 96 1014.9
20260507101549 3 62 0.0 0.0 0.00 0.00 0.00 96 1014.9
20260507100046 3 63 0.0 0.0 0.00 0.00 0.00 96 1014.8
20260507094547 3 62 0.0 0.0 0.00 0.00 0.00 96 1014.8
20260507093043 3 62 0.0 0.0 0.00 0.00 0.00 96 1014.8
20260507091542 3 63 0.0 0.0 0.00 0.00 0.00 96 1014.6
20260507090043 3 63 0.0 0.0 0.00 0.00 0.00 96 1014.6
20260507084541 3 62 0.0 0.0 0.00 0.00 0.00 96 1014.5
20260507083047 4 63 0.0 0.0 0.00 0.00 0.00 96 1014.5
20260507081537 4 62 0.0 0.0 0.00 0.00 0.00 95 1014.4
20260507080037 4 63 0.0 0.0 0.00 0.00 0.00 95 1014.3
20260507074540 5 63 0.0 0.0 0.00 0.00 0.00 95 1014.4
20260507073033 5 62 0.0 0.0 0.00 0.00 0.00 95 1014.4
20260507071548 5 62 0.0 0.0 0.00 0.00 0.00 95 1014.4
20260507070034 5 62 0.0 0.0 0.00 0.00 0.00 95 1014.3
20260507064528 5 63 0.0 0.0 0.00 0.00 0.00 95 1014.5
20260507063029 5 63 0.0 0.0 0.00 0.00 0.00 94 1014.5
20260507061525 5 63 0.0 0.0 0.00 0.00 0.00 94 1014.6
20260507060029 6 63 0.0 0.0 0.00 0.00 0.00 94 1014.6
20260507054521 6 63 0.0 0.0 0.00 0.00 0.00 94 1014.6
20260507053020 6 63 0.0 0.0 0.00 0.00 0.00 94 1014.6